Location: Hurstbourne Priors
(51.2000°N, 1.3667°W)
Time: 04:00:42
(UTC+00:00)

SJ-6B - Pass Details

Date: 09 April 2020
Orbit: 509 x 582 km, 97.6° (Epoch: 06 June)

Event Time Altitude Azimuth Distance (km) Brightness Sun altitude
Rises 20:15:19 0° 184° (S) 2,787 6.2 -12.8°
Reaches altitude 10° 20:17:34 10° 192° (SSW) 1,897 5.4 -13.1°
Maximum altitude 20:21:27 40° 262° (W) 871 4.3 -13.6°
Drops below altitude 10° 20:25:23 10° 333° (NNW) 1,910 6.5 -14.1°
Sets 20:27:39 0° 341° (NNW) 2,810 7.3 -14.4°
